Overview Statistics Trail Chart Weather Telemetry Raw packets
 

This is the latest recevied weather packets stored in our database for station/object HB9FHL-13. If no packets are shown the sender has not sent any weather packets the latest 10 day(s).

<< 95 96 97 98 99 100 101 >>
Time Temp. Humidity Pressure Rain* Wind** Luminosity Snow
1788068806 18.89° C - 1019.5 hPa 0 mm - - -
1788068803 18.89° C - 1019.5 hPa 0 mm - - -
1788068506 18.89° C - 1018.1 hPa 0 mm - - -
1788068502 18.89° C - 1018.1 hPa 0 mm - - -
1788068237 18.89° C - 1021.8 hPa 0 mm - - -
1788068202 18.89° C - 1021.8 hPa 0 mm - - -
1788067902 18.89° C - 1018.7 hPa 0 mm - - -
1788067601 19.44° C - 1019.7 hPa 0 mm - - -
1788067301 20° C - 1021.4 hPa 0 mm - - -
1788067000 18.89° C - 1019.3 hPa 0 mm - - -
1788066700 18.89° C - 1020.4 hPa 0 mm - - -
1788066440 18.33° C - 1019.6 hPa 0 mm - - -
1788066399 18.33° C - 1019.6 hPa 0 mm - - -
1788066099 18.89° C - 1019.3 hPa 0 mm - - -
1788065798 18.89° C - 1021.2 hPa 0 mm - - -
1788065498 18.33° C - 1019.1 hPa 0 mm - - -
1788065197 19.44° C - 1019.3 hPa 0 mm - - -
1788064897 18.89° C - 1019.8 hPa 0 mm - - -
1788064596 18.89° C - 1020.4 hPa 0 mm - - -
1788064296 18.89° C - 1019.2 hPa 0 mm - - -
1788064064 18.89° C - 1018.5 hPa 0 mm - - -
1788063995 18.89° C - 1018.5 hPa 0 mm - - -
1788063695 18.89° C - 1021 hPa 0 mm - - -
1788063489 18.89° C - 1019.8 hPa 0 mm - - -
1788063394 18.89° C - 1019.8 hPa 0 mm - - -

* Rain since midnight (hover to see other rain measurements)
** Current wind speed in m/s (hover to see current wind gust speed)